Tracking 28799 objects as of 18-Apr-2024
HD Live streaming from Space Station
objects crossing your sky now

THOR AGENA B DEB

Track THOR AGENA B DEB now!
10-day predictions


NORAD ID: 1951
Int'l Code: 1965-098G
Perigee: 485.1 km
Apogee: 1,733.2 km
Inclination: 79.6 °
Period: 107.3 minutes
Semi major axis: 7480 km
RCS: 0.109 m2 (medium)
Launch date: November 29, 1965
Source: United States (US)
Launch site: AIR FORCE WESTERN TEST RANGE (AFWTR)

Note: This is SATELLITE DEBRIS
Your satellite tracking list
Your tracking list is empty




NASA's NSSDC Master Catalog

Two Line Element Set (TLE):
1 01951U 65098G   24108.86076961  .00028265  00000-0  55886-2 0  9999
2 01951  79.6170  61.8093 0834255  43.1498 323.2006 13.41958076700817
Source of the keplerian elements: AFSPC